Regional Weather Roundup
Issued by NWS

Home | Current Version | Previous Version | Graphics & Text | Print | Product List | Glossary On
Versions: 1 2 3 4 5 6 7 8 9 10 11 12 13 14 15 16 17 18 19 20 21 22 23 24 25 26 27 28 29 30 31 32 33 34 35 36 37 38 39 40 41 42 43 44 45 46 47 48 49 50
000
ASUS43 KBIS 030802
RWRND

NORTH DAKOTA REGIONAL WEATHER ROUNDUP
NATIONAL WEATHER SERVICE BISMARCK ND
300 AM CDT MON AUG 03 2015

NOTE: "FAIR" INDICATES FEW OR NO CLOUDS BELOW 12,000 FEET WITH NO
SIGNIFICANT WEATHER AND/OR OBSTRUCTIONS TO VISIBILITY.


NDZ001>003-009>011-017-030900-
NORTHWEST NORTH DAKOTA

CITY           SKY/WX    TMP DP  RH WIND       PRES   REMARKS
WILLISTON      CLEAR     56  49  77 NE3       30.03F
MINOT          CLEAR     55  49  80 SW7       29.98S
$$

NDZ018>021-031>035-040>046-030900-
SOUTHWEST NORTH DAKOTA

CITY           SKY/WX    TMP DP  RH WIND       PRES   REMARKS
BISMARCK       CLEAR     58  53  84 W6        29.99S
DICKINSON      CLEAR     52  47  83 CALM      30.02F
GARRISON         N/A     53  50  89 N6        30.00S
HETTINGER ARPT CLEAR     51  46  83 N3        30.05S
$$

NDZ004>008-012>016-024-026-027-054-030900-
NORTHEAST NORTH DAKOTA

CITY           SKY/WX    TMP DP  RH WIND       PRES   REMARKS
GRAND FORKS    CLEAR     51  47  86 W7        29.88R
DEVILS LAKE    CLEAR     55  46  71 NW8       29.92S
$$

NDZ022-023-025-028>030-036>039-047>053-030900-
SOUTHEAST NORTH DAKOTA

CITY           SKY/WX    TMP DP  RH WIND       PRES   REMARKS
FARGO          CLEAR     54  48  80 W6        29.89S
JAMESTOWN      CLEAR     55  50  83 NW6       29.95S
$$




USA.gov is the U.S. government's official web portal to all federal, state and local government web resources and services.